STARLINK-31690 (59581 NORAD) Tracking and Keplerian Element Data

This shows tracking and keplerian element data for the satellite.

Feedback or suggestion? Click here.




ElementValue
Catalog59581
NameSTARLINK-31690
Epoch Orbit830
Epoch Day160.09434344
Epoch Year2024
RAAN54.0941
Inclination42.9989
Eccentricity0.0001636
Argument of Perigee257.6105
Mean Anonmoly102.4568
Mean Motion15.40714152
Decay Rate3.069E-05
L11 59581U 24076T 24160.09434344 .00003069 00000+0 80668-4 0 9990
L22 59581 42.9989 54.0941 0001636 257.6105 102.4568 15.40714152 8303



Live tracking and technical data element details for STARLINK-31690 (NORAD 59581). STARLINK-31690 can be tracked NOW for your location showing map with azimuth and elevation plus other details from your city location.







IsCatalogInMostPopularTable: catalog: 59581, numindb: 12
Update: records affected: 1



GetName: 59581 STARLINK-31690

Hit Count: updated at: Fri, 14 Jun 2024 19:56:38 GMT